Location: St. Louis
(38.6270°N, 90.1994°W)
Time: 17:17:00
(UTC-06:00)

Courier 1B - Pass Details

Date: 04 December 2021
Orbit: 962 x 1209 km, 28.3° (Epoch: 26 January)

Event Time Altitude Azimuth Distance (km) Brightness Sun altitude
Rises 18:29:51 0° 255° (WSW) 3,991 12.3 -21.0°
Reaches altitude 10° 18:32:56 10° 247° (WSW) 2,994 11.2 -21.6°
Maximum altitude 18:39:30 36° 184° (S) 1,640 8.8 -22.9°
Enters shadow 18:42:57 23° 137° (SE) 2,072 8.9 -23.5°
